COSMOS 2154

导读

COSMOS 2154是独联体(CIS)在1991年8月22日发射的“宇宙”系列卫星,发射时苏联刚刚解体,是独联体时期继承航天体系后完成发射的空间资产。“宇宙”系列多承担军事侦察、空间技术验证任务,该卫星作为冷战末期航天活动的产物,延续了苏联/俄罗斯在近地轨道部署军事监视平台的传统,相关任务细节未公开,是后苏联时代早期航天活动的见证。

基本信息
目录编号:
21666
目录名称:
COSMOS 2154
国际标识:
1991-059A
轨道中心:
EARTH
卫星名称:
COSMOS 2154
卫星全名:
--
卫星状态:
在轨 (已飞行12713 天)
发射日期:
1991-08-22 UTC
国别 :
俄罗斯(独联体) (CIS)
星等 :
--
轨道信息
数据来源 国际轨道数据 AOE轨道数据
星历时间 2026-06-12T14:49:07+0800
13小时前
查看轨道信息
2026-06-12T04:00:00+0800
23小时前
查看轨道信息
半长轴 7365.031km 7365.006km
偏心率 0.0023958 0.0024593
轨道倾角 82.906° 82.905°
近地点辐角 224.182° 225.627°
升交点赤经 113.032° 113.366°
平近点角 261.370° 192.269°
近地点 969.248km 968.756km
远地点 1004.54km 1004.982km
周期 104.839分钟 104.838分钟
每日圈数 13.735387 13.735457
详细信息
使用方式:
暂无
2D轨道图
3D轨道图
轨道高度分析图
轨道倾角分析图
轨道综合分析图
查看轨道综合分析图